Location: Aufkirchen
(47.9603°N, 11.3653°E)
Time: 04:15:45
(UTC+01:00)

Vanguard 3 - Pass Details

Date: 26 November 2020
Orbit: 508 x 3262 km, 33.3° (Epoch: 23 January)

Event Time Altitude Azimuth Distance (km) Brightness Sun altitude
Rises 00:44:00 0° 245° (WSW) 3,086 - -61.7°
Reaches altitude 10° 00:46:33 10° 228° (SW) 2,416 - -61.6°
Maximum altitude 00:50:47 21° 179° (S) 2,171 - -61.3°
Drops below altitude 10° 00:56:49 10° 135° (SE) 3,587 - -60.8°
Sets 01:01:41 0° 122° (ESE) 5,132 - -60.5°
